Regional Weather Roundup
Issued by NWS

Home | Current Version | Previous Version | Text Only | Print | Product List | Glossary On
Versions: 1 2 3 4 5 6 7 8 9 10 11 12 13 14 15 16 17 18 19 20 21 22 23 24 25 26 27 28 29 30 31 32 33 34 35 36 37 38 39 40 41 42 43 44 45 46 47 48 49 50
000
ASPQ40 PGUM 290812
RWRPQ
WEATHER ROUNDUP FOR THE MARIANAS AND MICRONESIA
NATIONAL WEATHER SERVICE TIYAN GU
600 PM CHST MON DEC 29 2014

GUZ001>004-290900-
MARIANA ISLANDS-

CITY           SKY/WX    TMP DP  RH WIND       PRES   REMARKS
GUAM AIRPORT   PTCLDY    82  73  74 E9        29.82R
ANDERSEN AFB   MOCLDY    79  75  89 NE12      29.82S
ROTA AIRPORT   PTCLDY    79  73  83 E12       29.83R
TINIAN AP      PTCLDY    81  75  83 E13       29.81R
SAIPAN AP      MOCLDY    79  73  83 E22G29    29.82R

$$

PMZ161-290900-
REPUBLIC OF PALAU-

CITY           SKY/WX    TMP DP  RH WIND       PRES   REMARKS
KOROR AP       PTSUNNY   84  79  84 E10       29.73R HX  96
KOROR WSO      PTSUNNY   86  77  74 CALM      29.72R HX  97

$$

PMZ171>174-290900-
FEDERATED STATES OF MICRONESIA-

CITY           SKY/WX    TMP DP  RH WIND       PRES   REMARKS
YAP AIRPORT    MOCLDY    82  75  78 VRB6      29.73F
CHUUK AP       CLOUDY    82  77  83 NE14G22   29.72F HX  91
POHNPEI AP     NOT AVBL
POHNPEI WSO    CLOUDY    82  77  83 E9        29.78R HX  91
KOSRAE AP      NOT AVBL

$$

PMZ181-290900-
REPUBLIC OF THE MARSHALL ISLANDS-

CITY           SKY/WX    TMP DP  RH WIND       PRES   REMARKS
KWAJALEIN AP   CLEAR     82  70  65 NE25      29.80R
MAJURO AP      PTCLDY    82  75  78 NE18      29.75
MAJURO WSO     MOCLDY    82  73  74 NE15      29.76R

$$



USA.gov is the U.S. government's official web portal to all federal, state and local government web resources and services.